Flag for Germany Weather past 2 weeks in Grevenbroich, North Rhine-Westphalia, Germany

Now
36 °F

Passing clouds.


Feels Like: 27 °F
Forecast: 30 / 39 °F
Wind: 12 mph from Northwest

Location: Monchengladbach Airport

Current Time: Dec 29, 2014 at 10:37:33 AM

Latest Report: Dec 29, 2014 at 10:20 AM


Visibility: 5 mi

Pressure: 30.45 "Hg

Humidity: 93%

Dew point: 34 °F

Location of GrevenbroichLocation

Historic Weather in Grevenbroich — Graph

°F

Grevenbroich temperature yesterday

Maximum temperature yesterday: 30 °F (at 1:50 PM)
Minimum temperature yesterday: 25 °F (at 7:50 AM)
Average temperature yesterday: 27 °F

Past Weeks' High & Low Weather Summary

 TemperatureHumidityPressure
High55 °F (Dec 18, 12:20 PM)100% (Dec 14, 9:20 AM)30.51 "Hg (Dec 14, 9:20 AM)
Low25 °F (Dec 28, 7:50 AM)59% (Dec 28, 1:50 PM)29.42 "Hg (Dec 27, 9:20 AM)
Average43 °F87%29.99 "Hg
* Reported Dec 14 9:20 AM — Dec 29 9:20 AM, Grevenbroich, Weather by CustomWeather, © 2014

Note: Actual official high and low records may vary slightly from our data, if they occured in-between our weather recording intervals... More about our weather records

Advertising

Grevenbroich weather history for previous 24 hours

 ConditionsComfort  
Time TempWeatherWind HumidityBarometerVisibility
9:20 AM
Dec 29
34 °FFog.8 mph100%30.45 "Hg3 mi
8:50 AM34 °FFog.9 mph100%30.42 "Hg3 mi
8:20 AM34 °FPassing clouds.13 mph100%30.42 "Hg4 mi
7:50 AM34 °FLight snow. Passing clouds.10 mph93%30.42 "Hg4 mi
7:50 PM
Dec 28
25 °FClear.5 mph93%30.51 "Hg10 mi
7:20 PM25 °FClear.3 mph86%30.51 "Hg10 mi
6:50 PM27 °FClear.6 mph86%30.51 "Hg10 mi
6:20 PM25 °FClear.3 mph93%30.48 "Hg10 mi
5:50 PM25 °FClear.3 mph93%30.45 "Hg10 mi
5:20 PM27 °FClear.3 mph86%30.45 "Hg10 mi
4:50 PM28 °FClear.5 mph80%30.42 "Hg10 mi
4:20 PM28 °FClear.5 mph80%30.42 "Hg10 mi
3:50 PM30 °FClear.6 mph75%30.42 "Hg10 mi
3:20 PM30 °FClear.6 mph75%30.39 "Hg10 mi
2:50 PM30 °FPassing clouds.7 mph69%30.39 "HgN/A
2:20 PM30 °FPassing clouds.8 mph59%30.36 "HgN/A
1:50 PM30 °FClear.9 mph59%30.36 "Hg10 mi
1:20 PM28 °FPassing clouds.9 mph64%30.33 "HgN/A
12:50 PM28 °FClear.9 mph64%30.33 "Hg10 mi
12:20 PM28 °FClear.13 mph64%30.30 "Hg10 mi
11:50 AM27 °FClear.10 mph69%30.30 "Hg10 mi
11:20 AM27 °FClear.13 mph69%30.30 "Hg10 mi
10:50 AM27 °FClear.12 mph69%30.27 "Hg10 mi
10:20 AM25 °FClear.8 mph74%30.24 "Hg10 mi
Weather by CustomWeather, © 2014

See weather overviewHow to use our weather pages